[[[{"header":{"parameterUnit":"kt","parameterCategory":2,"dx":1,"dy":1,"la1":30.253999710083008,"la2":30.299108505249023,"lo1":-89.0895004272461,"lo2":-89.04439544677734,"nx":28,"ny":28,"refTime":"2022-10-15T21:00:00:Z","depth":0,"parameterNumber":1,"parameterNumberName":"U-component_of_WINDS"},"data":[-3.9396,-3.9527,-3.9546,-3.9705,-3.975,-3.9862,-3.9908,-3.9971,-4.0026,-4.0163,-4.0245,-4.028,-4.0344,-4.0449,-4.054,-4.0554,-4.0591,-4.0622,-4.0632,-4.0474,-4.0453,-4.0434,-4.0403,-4.063,-4.063,-4.0793,-4.0795,-4.0796,-3.9276,-3.9321,-3.9411,-3.9511,-3.9589,-3.957,-3.9649,-3.9715,-3.9817,-3.9886,-3.9969,-4.0092,-4.0192,-4.0247,-4.0347,-4.041,-4.0408,-4.0436,-4.0431,-4.0441,-4.0273,-4.024,-4.0436,-4.0436,-4.0436,-4.0436,-4.0436,-4.0435,-3.9062,-3.914,-3.9212,-3.931,-3.9366,-3.9434,-3.9512,-3.9552,-3.9642,-3.9748,-3.9756,-3.9871,-3.9946,-4.0077,-4.0127,-4.0219,-4.0191,-4.0229,-4.0238,-4.0247,-4.0254,-4.0013,-4.0237,-4.0237,-4.0236,-4.0236,-4.0235,0,-3.8912,-3.8923,-3.901,-3.9104,-3.9177,-3.9252,-3.9325,-3.9374,-3.9406,-3.9479,-3.9586,-3.9652,-3.9782,-3.9885,-3.9985,-4.0029,-4.0019,-4.0021,-4.0046,-4.0043,-4.0027,-4.0036,-3.9759,-4.0014,-4.0012,-4.0011,-4.001,-4.0009,-3.8696,-3.8786,-3.8871,-3.893,-3.8975,-3.9071,-3.9132,-3.9154,-3.9218,-3.9312,-3.938,-3.9485,-3.9569,-3.9739,-3.9787,-3.9885,-3.9881,-3.9975,-3.9895,-3.9888,-3.9881,-3.9875,-3.9884,-3.999,-3.9992,-3.9994,-3.9996,0,-3.8573,-3.8605,-3.875,-3.8827,-3.8849,-3.8942,-3.9008,-3.9088,-3.9119,-3.9233,-3.9261,-3.9311,-3.9416,-3.9449,-3.9578,-3.9591,-3.9746,-3.974,-3.9719,-3.9719,-3.9807,-3.9798,-4.0087,-4.0126,-3.9892,-3.9894,-3.9896,0,-3.8402,-3.8519,-3.856,-3.8643,-3.8773,-3.8792,-3.8921,-3.896,-3.9024,-3.9114,-3.9107,-3.9192,-3.9221,-3.9311,-3.9332,-3.9464,-3.9489,-3.9507,-3.9511,-3.9508,-3.9505,-3.9542,-3.9531,-3.9518,-3.9517,-3.9515,-3.9514,0,-3.8205,-3.8365,-3.8499,-3.8541,-3.8635,-3.8698,-3.8741,-3.8813,-3.8873,-3.8958,-3.8997,-3.9095,-3.9148,-3.9224,-3.9249,-3.9193,-3.9412,-3.9341,-3.943,-3.943,-3.9477,-3.9473,-3.9721,-3.9512,-3.9512,-3.9512,-3.9511,0,-3.8072,-3.8155,-3.8345,-3.8423,-3.8464,-3.8554,-3.8649,-3.8733,-3.881,-3.8828,-3.8895,-3.8894,-3.9013,-3.894,-3.9104,-3.9024,-3.9077,-3.9105,-3.9112,-3.9124,-3.9041,-3.9175,-3.9409,-3.9435,-3.9136,-3.9133,-3.913,0,-3.7836,-3.8037,-3.8054,-3.8236,-3.8332,-3.8316,-3.8416,-3.8484,-3.8517,-3.8605,-3.8642,-3.8742,-3.8695,-3.8731,-3.8808,-3.885,-3.8954,-3.8837,-3.8964,-3.8969,-3.8942,-3.9158,-3.9184,-3.9355,-3.9091,-3.9095,-3.9098,0,-3.7658,-3.7771,-3.7802,-3.785,-3.7943,-3.8025,-3.814,-3.8243,-3.83,-3.8379,-3.8475,-3.8619,-3.8588,-3.8649,-3.8659,-3.8737,-3.8884,-3.8694,-3.8696,-3.8726,-3.9074,-3.9098,-3.9126,-3.8874,-3.8879,-3.8883,-3.9066,0,-3.7447,-3.7552,-3.7638,-3.7745,-3.7813,-3.7929,-3.7962,-3.803,-3.8031,-3.8063,-3.8207,-3.8273,-3.838,-3.8422,-3.8425,-3.8594,-3.8571,-3.8538,-3.8469,-3.8611,-3.8672,-3.8697,-3.8374,-3.8372,-3.8371,-3.837,0,0,-3.7213,-3.7364,-3.7379,-3.7491,-3.7549,-3.7531,-3.7652,-3.7707,-3.782,-3.7861,-3.7822,-3.8034,-3.809,-3.8261,-3.8308,-3.8352,-3.8386,-3.8335,-3.8543,-3.8562,-3.858,-3.8645,-3.8671,-3.8367,-3.8366,-3.8366,-3.8365,0,-3.7142,-3.7197,-3.7316,-3.7374,-3.7459,-3.7486,-3.7515,-3.7597,-3.7623,-3.7764,-3.7748,-3.7839,-3.8009,-3.8069,-3.8122,-3.8315,-3.8298,-3.8346,-3.8437,-3.8526,-3.8548,-3.8566,-3.8634,-3.8659,-3.8362,-3.8362,-3.8362,0,-3.6972,-3.7031,-3.7092,-3.7224,-3.728,-3.7381,-3.7316,-3.7426,-3.7502,-3.7478,-3.7619,-3.766,-3.7745,-3.7903,-3.7976,-3.7943,-3.8216,-3.8137,-3.8148,-3.8156,-3.8244,-3.827,-3.8292,-3.7993,-3.7992,-3.7991,0,0,-3.6906,-3.7004,-3.7075,-3.7211,-3.7247,-3.729,-3.7348,-3.7355,-3.743,-3.7461,-3.7514,-3.7588,-3.7687,-3.7751,-3.7846,-3.8015,-3.8034,-3.809,-3.8107,-3.8121,-3.8138,-3.8229,-3.8255,-3.7985,-3.7985,-3.7985,0,0,-3.6875,-3.6962,-3.6949,-3.7111,-3.7183,-3.7262,-3.7345,-3.7332,-3.742,-3.7411,-3.743,-3.7451,-3.76,-3.7642,-3.7565,-3.7822,-3.7753,-3.7772,-3.7789,-3.7811,-3.7828,-3.7815,-3.7508,0,0,0,0,0,-3.6819,-3.695,-3.6938,-3.697,-3.7138,-3.7269,-3.7291,-3.7308,-3.7258,-3.7323,-3.7365,-3.7343,-3.7604,-3.7537,-3.7569,-3.7654,-3.7915,-3.7928,-3.7939,-3.8001,-3.8024,-3.8044,0,0,0,0,0,0,-3.6832,-3.6871,-3.6935,-3.7019,-3.7057,-3.7264,-3.7183,-3.7192,-3.7252,-3.7245,-3.7336,-3.7346,-3.7365,-3.7521,-3.755,-3.7631,-3.7499,-3.792,-3.7931,-3.794,-3.8009,-3.8028,-3.8044,0,0,0,0,0,-3.6842,-3.6873,-3.7138,-3.7018,-3.7051,-3.7106,-3.7178,-3.7185,-3.7232,-3.7297,-3.7307,-3.7239,-3.7366,-3.7392,-3.7539,-3.7617,-3.7479,-3.7489,-3.7927,-3.7935,-3.7943,-3.8018,0,0,0,0,0,0,-3.685,-3.6881,-3.7145,-3.7155,-3.6969,-3.7094,-3.7114,-3.7179,-3.728,-3.7291,-3.7201,-3.7195,-3.7369,-3.7389,-3.7409,-3.7611,-3.7462,-3.7473,-3.748,-3.7933,-3.794,-3.7946,0,0,0,0,0,0,-3.6864,-3.689,-3.715,-3.7088,-3.7092,-3.7084,-3.7102,-3.7229,-3.7282,-3.7179,-3.7176,-3.7197,-3.734,-3.7387,-3.7402,-3.7601,-3.745,-3.746,-3.7468,-3.7472,-3.7939,-3.7944,0,0,0,0,0,0,-3.6875,-3.6898,-3.7085,-3.7088,-3.7091,-3.7213,-3.7197,-3.7368,-3.7227,-3.7175,-3.7215,-3.7209,-3.7339,-3.7355,-3.7398,-3.759,-3.7598,-3.745,-3.7458,-3.7463,-3.7466,0,0,0,0,0,0,0,-3.6885,-3.673,-3.7081,-3.7088,-3.7091,-3.7255,-3.7258,-3.7261,-3.7226,-3.7221,-3.7216,-3.7211,-3.7391,-3.7402,-3.7414,-3.7582,0,0,-3.7449,-3.7454,0,0,0,0,0,0,0,0,-3.6721,-3.6728,-3.7081,-3.7083,-3.7086,-3.7255,-3.7258,-3.726,-3.7225,-3.7221,-3.7217,-3.7213,-3.7394,-3.7403,-3.7412,0,0,0,0,0,0,0,0,0,0,0,0,0,0,0,-3.7081,-3.7083,0,-3.7255,-3.7257,-3.7259,-3.7224,-3.7221,-3.7218,-3.7215,-3.7396,-3.7404,-3.7412,0,0,0,0,0,0,0,0,0,0,0,0,0,0,0,0,0,0,0,0,0,0,0,0,0,0,0,0,0,0,0,0,0,0,0,0,0,0,0,0,0,0,0,0,0,0,0,0,0,0,0,0,0,0,0,0,0,0,0,0,0,0,0,0,0,0,0,0,0]}],[{"header":{"parameterUnit":"kt","parameterCategory":2,"dx":1,"dy":1,"la1":30.253999710083008,"la2":30.299108505249023,"lo1":-89.0895004272461,"lo2":-89.04439544677734,"nx":28,"ny":28,"refTime":"2022-10-15T21:00:00:Z","depth":0,"parameterNumber":2,"parameterNumberName":"V-component_of_WINDS"},"data":[4.3978,4.41,4.4096,4.4233,4.4252,4.4344,4.4375,4.4414,4.4444,4.4551,4.4611,4.4617,4.4642,4.4711,4.4774,4.4774,4.48,4.4847,4.484,4.4637,4.4609,4.4581,4.4552,4.4854,4.4854,4.5049,4.5051,4.5052,4.3829,4.3851,4.3922,4.3989,4.4049,4.4002,4.405,4.4103,4.4185,4.4223,4.4282,4.4374,4.4446,4.4455,4.4522,4.4576,4.4556,4.4594,4.4589,4.4593,4.4378,4.4347,4.461,4.461,4.4609,4.4609,4.4609,4.4609,4.3558,4.3632,4.367,4.3747,4.3779,4.3823,4.3891,4.3898,4.3966,4.4038,4.4018,4.411,4.4144,4.4221,4.4245,4.4315,4.427,4.431,4.4319,4.4329,4.4341,4.4058,4.4326,4.4325,4.4324,4.4324,4.4323,0,4.3358,4.335,4.3418,4.3485,4.3541,4.3592,4.3637,4.3679,4.3656,4.3714,4.3795,4.384,4.3929,4.4003,4.4064,4.408,4.4033,4.4028,4.4055,4.4066,4.4068,4.4066,4.3713,4.402,4.4017,4.4015,4.4014,4.4013,4.3082,4.3169,4.3206,4.3255,4.3278,4.3357,4.3402,4.3375,4.3424,4.3474,4.3539,4.3614,4.3672,4.3801,4.3804,4.3869,4.3846,4.3964,4.3856,4.3863,4.3846,4.3841,4.3849,4.3985,4.3989,4.3992,4.3994,0,4.2927,4.2919,4.3052,4.3079,4.3088,4.318,4.3202,4.3273,4.327,4.3368,4.3389,4.3384,4.3463,4.3447,4.3533,4.3522,4.3669,4.3646,4.3656,4.365,4.3753,4.3743,4.4092,4.4135,4.3824,4.3827,4.383,0,4.2688,4.2803,4.2784,4.2861,4.2987,4.2957,4.3082,4.3092,4.3122,4.3198,4.3144,4.3216,4.3184,4.3253,4.3237,4.3354,4.337,4.3368,4.3362,4.3372,4.3372,4.3395,4.3379,4.3347,4.3345,4.3343,4.3342,0,4.2445,4.2569,4.2695,4.2722,4.2761,4.282,4.2839,4.2872,4.2916,4.297,4.2997,4.3062,4.3097,4.3147,4.3125,4.3052,4.3268,4.3163,4.3265,4.3266,4.3312,4.331,4.3624,4.334,4.3339,4.3339,4.3338,0,4.2249,4.2307,4.2492,4.2522,4.2556,4.2639,4.2701,4.2768,4.2806,4.2801,4.2843,4.2804,4.2906,4.2803,4.2942,4.2853,4.289,4.2897,4.2904,4.291,4.2795,4.2972,4.3275,4.3305,4.2918,4.2915,4.2912,0,4.1972,4.2156,4.2132,4.2307,4.2389,4.2322,4.2413,4.2449,4.245,4.2518,4.2519,4.2596,4.2516,4.2538,4.2609,4.2612,4.2728,4.2596,4.269,4.2694,4.2681,4.296,4.3008,4.3211,4.2867,4.2872,4.2875,0,4.1756,4.1804,4.1837,4.1865,4.191,4.1978,4.2083,4.2154,4.22,4.2247,4.2332,4.2441,4.2384,4.2421,4.2395,4.247,4.2648,4.2398,4.2399,4.2443,4.2843,4.2889,4.2923,4.2614,4.2619,4.2624,4.2839,0,4.1459,4.155,4.164,4.1706,4.1756,4.1865,4.1849,4.1904,4.1875,4.1873,4.1999,4.2023,4.2093,4.2128,4.2099,4.2277,4.2244,4.2183,4.2079,4.2263,4.2334,4.2362,4.1976,4.1973,4.197,4.1968,0,0,4.1195,4.1325,4.1295,4.1396,4.1437,4.1365,4.1483,4.1513,4.1577,4.1606,4.1548,4.1706,4.1727,4.1881,4.1937,4.1966,4.1995,4.1932,4.2176,4.22,4.2221,4.2297,4.2327,4.1963,4.1962,4.1961,4.196,0,4.1083,4.1111,4.1229,4.126,4.1305,4.1298,4.1327,4.1357,4.1361,4.1485,4.1422,4.1495,4.1622,4.1652,4.1684,4.1913,4.186,4.1936,4.2065,4.215,4.2177,4.2201,4.2281,4.231,4.1954,4.1954,4.1954,0,4.0866,4.089,4.0946,4.1036,4.1064,4.115,4.1039,4.1135,4.1198,4.1112,4.1235,4.1246,4.1285,4.1434,4.1499,4.1449,4.1738,4.1644,4.166,4.1666,4.1748,4.178,4.1809,4.1429,4.1427,4.1426,0,0,4.0771,4.0856,4.0872,4.1011,4.1033,4.1024,4.1068,4.1043,4.1082,4.1098,4.111,4.1149,4.1221,4.127,4.1337,4.1503,4.1507,4.158,4.1605,4.1625,4.1643,4.1729,4.1761,4.1419,4.1419,4.1419,0,0,4.0725,4.075,4.0714,4.0873,4.0914,4.0937,4.1021,4.0977,4.1036,4.1021,4.0982,4.099,4.1128,4.1141,4.1055,4.1299,4.1198,4.1218,4.1286,4.1317,4.1341,4.1335,4.0942,0,0,0,0,0,4.0602,4.0747,4.0714,4.0738,4.0851,4.0955,4.0969,4.0941,4.087,4.0937,4.094,4.0881,4.1086,4.1009,4.1032,4.1128,4.1334,4.1349,4.1363,4.149,4.1523,4.155,0,0,0,0,0,0,4.0611,4.0641,4.071,4.074,4.0765,4.095,4.0823,4.0819,4.0862,4.0849,4.0882,4.0882,4.0858,4.0995,4.1017,4.1108,4.0934,4.134,4.1353,4.1364,4.1501,4.1528,4.1551,0,0,0,0,0,4.0619,4.0643,4.0832,4.0738,4.076,4.0757,4.0817,4.0813,4.0845,4.085,4.0848,4.082,4.0862,4.0878,4.1008,4.1099,4.0919,4.0927,4.1348,4.1358,4.1368,4.1514,0,0,0,0,0,0,4.0624,4.0639,4.0835,4.0841,4.0681,4.0746,4.0755,4.0808,4.0843,4.0843,4.0785,4.0775,4.0866,4.0878,4.0891,4.1098,4.0907,4.0915,4.092,4.1356,4.1364,4.1371,0,0,0,0,0,0,4.0626,4.0644,4.0838,4.0768,4.0766,4.0736,4.0744,4.085,4.0844,4.0776,4.0768,4.078,4.0846,4.0879,4.0888,4.1054,4.0897,4.0905,4.0911,4.0914,4.1363,4.1369,0,0,0,0,0,0,4.0633,4.0649,4.0767,4.0765,4.0762,4.0821,4.0828,4.0945,4.0787,4.0775,4.0772,4.0765,4.0849,4.0857,4.0887,4.1049,4.1053,4.0897,4.0903,4.0907,4.0909,0,0,0,0,0,0,0,4.0639,4.054,4.0803,4.0762,4.0759,4.0891,4.0893,4.0894,4.0785,4.0779,4.0773,4.0768,4.0852,4.086,4.0869,4.1045,0,0,4.0896,4.09,0,0,0,0,0,0,0,0,4.0533,4.0538,4.0804,4.0805,4.0806,4.0892,4.0893,4.0894,4.0784,4.078,4.0775,4.077,4.0854,4.0861,4.0868,0,0,0,0,0,0,0,0,0,0,0,0,0,0,0,4.0804,4.0805,0,4.0892,4.0893,4.0894,4.0784,4.078,4.0776,4.0772,4.0856,4.0862,4.0868,0,0,0,0,0,0,0,0,0,0,0,0,0,0,0,0,0,0,0,0,0,0,0,0,0,0,0,0,0,0,0,0,0,0,0,0,0,0,0,0,0,0,0,0,0,0,0,0,0,0,0,0,0,0,0,0,0,0,0,0,0,0,0,0,0,0,0,0,0]}]]]